Location: Rounton
(54.4000°N, 1.3500°W)
Time: 13:34:11
(UTC+00:00)

Transit 2A - Pass Details

Date: 06 December 2021
Orbit: 591 x 967 km, 66.7° (Epoch: 17 January)

Event Time Altitude Azimuth Distance (km) Brightness Sun altitude
Rises 09:35:38 0° 314° (NW) 3,665 8.9 7.3°
Reaches altitude 10° 09:38:55 10° 298° (WNW) 2,713 8.3 7.6°
Maximum altitude 09:43:16 20° 255° (WSW) 2,073 8.1 7.9°
Drops below altitude 10° 09:47:31 10° 211° (SSW) 2,633 9.2 8.2°
Sets 09:50:39 0° 195° (SSW) 3,522 10.2 8.5°
